Temp
51 46 44 52 52 50 46 43 42 49 55 47 46 48 53 59 59 60 61 62 62 61 51 54 52 51 50 50 49 47 46 47 46 45 44 45 45 47 48 49 48 48 48 48
45 44 49 48 47 45 44 41 42 49 47 43 45 44 51 55 57 57 55 54 53 51 47 47 48 48 48 48 46 46 45 45 44 44 44 43 43 45 46 47 47 48 47 47
45 46 47 45 45 41 43 40 41 40 44 47 43 44 49 50 51 49 50 49 49 49 46 44 44 45 46 46 46 44 43 43 43 43 42 43 44 45 45 47 47 47 46 46
45 47 44 44 42 43 33 42 40 38 35 34 42 29 46 54 50 48 48 49 48 47 46 46 45 44 44 44 43 42 41 41 42 41 40 39 39 38 42 42 44 44 45 44
41 42 41 36 41 42 37 41 39 38 33 31 38 30 45 49 44 45 47 45 46 44 43 43 43 41 42 41 41 42 41 40 40 39 38 38 37 40 41 41 41 42 43 43
43 45 42 41 42 41 42 38 39 37 33 24 31 33 42 40 38 45 48 47 43 43 43 43 42 39 40 41 40 40 39 38 39 38 37 36 35 36 36 37 37 38 39 39
39 40 40 41 37 41 37 34 29 26 23 28 31 30 39 42 42 41 40 42 40 43 43 43 42 41 40 39 39 38 37 35 36 35 35 35 34 34 34 34 35 35 34 34
33 30 36 37 34 31 35 32 29 23 26 30 31 28 36 38 37 34 36 34 44 44 43 40 39 38 38 37 37 36 35 34 34 33 33 34 33 33 34 35 34 33 32 32
31 31 37 35 37 36 31 28 34 27 23 23 33 38 40 41 38 39 36 42 42 41 39 36 35 36 35 34 34 33 32 32 31 31 31 32 32 32 31 31 31 31 32 32
33 29 36 33 35 36 33 36 26 28 21 22 32 31 32 34 34 37 34 37 37 39 38 37 36 35 34 33 32 31 30 27 27 28 30 31 31 31 30 29 28 29 30 30
36 31 29 30 27 30 28 29 29 28 27 23 24 30 30 34 32 31 34 36 37 37 36 35 34 33 29 26 25 25 25 24 24 26 28 29 29 30 29 28 29 29 30 30
37 32 27 30 29 31 32 30 32 26 23 26 23 29 32 32 32 31 34 36 38 37 34 33 32 29 26 24 24 23 23 23 24 25 26 27 29 29 28 28 29 30 30 31
33 30 26 26 26 30 27 30 31 27 26 25 24 31 30 31 34 35 34 34 33 33 34 32 29 25 24 23 23 22 23 23 24 25 25 27 27 28 27 28 29 29 30 30
36 30 27 28 26 31 26 28 29 27 24 27 27 31 32 32 33 33 33 33 33 32 32 31 28 26 25 23 23 22 23 24 24 25 24 25 26 27 27 28 28 29 30 30
32 25 25 27 28 28 27 26 28 24 27 23 29 22 28 32 30 30 31 33 32 32 32 32 30 30 26 24 23 23 23 23 24 23 23 24 26 28 27 28 28 30 30 30
32 26 23 23 26 24 23 26 26 28 27 27 26 25 32 33 33 33 33 32 31 32 32 32 31 29 26 24 24 24 24 23 24 22 23 25 26 26 27 28 28 29 29 30
28 28 24 24 23 23 21 23 25 27 25 28 23 30 31 30 30 32 32 32 31 31 32 31 31 30 28 25 26 25 25 26 24 24 25 27 27 27 27 28 28 27 27 29
28 26 27 23 21 19 23 21 22 24 25 28 27 29 32 30 32 32 33 31 30 30 31 31 30 30 29 29 27 30 30 28 27 26 27 28 27 27 28 28 26 27 30 29
31 29 25 20 22 28 26 23 23 23 29 29 27 29 30 31 32 32 32 31 29 32 31 30 28 26 27 27 27 28 27 28 28 26 27 27 27 26 27 26 27 29 29 30
29 30 26 21 19 20 27 29 29 27 22 28 27 27 27 29 29 32 32 32 31 32 32 31 29 27 26 25 28 28 27 27 27 28 29 29 28 27 26 27 27 29 28 29
22 24 21 22 21 28 30 31 33 22 25 29 29 28 27 26 31 31 31 30 32 32 32 33 30 27 26 27 26 25 27 27 30 30 30 30 29 26 28 28 28 27 26 27
22 21 20 23 20 18 31 30 27 27 30 29 29 28 26 27 28 28 29 29 31 30 31 32 31 32 34 33 29 27 27 31 31 30 29 27 25 27 28 24 24 24 23 23
21 29 27 28 29 32 32 31 30 28 27 28 27 28 27 27 28 29 29 30 30 30 30 31 29 28 30 30 29 26 28 30 28 26 24 23 23 25 25 24 23 24 24 23
28 33 28 27 30 31 31 30 30 29 28 29 29 27 27 25 27 27 29 28 27 28 26 27 25 24 25 28 28 28 28 28 25 24 24 24 22 23 23 25 25 25 26 25
30 31 30 30 31 29 31 32 30 30 29 29 29 27 26 25 25 25 24 24 25 25 24 23 22 22 23 25 25 26 26 25 23 24 24 25 25 24 24 25 25 25 27 28
31 31 28 31 33 34 33 32 30 29 27 27 25 25 25 24 23 22 21 23 22 21 21 20 20 20 21 22 21 22 23 23 22 22 24 26 27 27 25 25 26 30 30 31
MSLP
1014.65 1014.30 1013.18 1012.53 1013.02 1013.01 1012.97 1012.65 1011.97 1011.59 1011.34 1011.50 1010.83 1009.35 1008.39 1007.66 1007.39 1007.21 1007.21 1007.52 1008.47 1009.74 1011.94 1012.76 1014.10 1014.96 1015.53 1016.14 1016.82 1017.42 1017.78 1017.93 1018.23 1018.21 1018.09 1017.77 1017.54 1017.26 1017.07 1016.96 1017.07 1017.12 1016.97 1016.75
1014.83 1013.70 1013.48 1013.82 1013.98 1013.97 1013.45 1013.14 1012.58 1011.95 1012.48 1012.58 1011.01 1009.25 1008.11 1007.44 1007.17 1007.59 1008.27 1008.77 1009.87 1011.16 1012.83 1013.96 1014.73 1015.49 1015.97 1016.39 1016.98 1017.45 1017.74 1018.11 1018.41 1018.52 1018.55 1018.46 1018.05 1017.60 1017.36 1017.14 1016.91 1016.79 1016.73 1016.64
1014.01 1014.02 1014.42 1014.47 1014.28 1014.40 1014.07 1013.77 1013.50 1013.48 1013.09 1012.08 1011.63 1008.84 1007.54 1007.89 1008.28 1009.12 1009.99 1010.78 1011.47 1012.35 1013.46 1014.59 1015.31 1015.76 1016.28 1016.68 1017.08 1017.63 1017.94 1018.33 1018.50 1018.66 1018.57 1018.20 1017.84 1017.31 1016.84 1016.53 1016.46 1016.47 1016.59 1016.57
1014.22 1014.54 1014.87 1014.98 1014.90 1015.13 1015.00 1014.89 1014.86 1014.62 1014.26 1012.82 1012.73 1010.02 1008.24 1007.55 1008.47 1009.73 1010.65 1011.34 1012.41 1013.29 1014.07 1014.89 1015.43 1016.06 1016.58 1016.99 1017.49 1017.86 1018.12 1018.42 1018.52 1018.64 1018.54 1018.29 1018.04 1017.59 1017.17 1017.12 1016.91 1016.78 1016.62 1016.46
1014.78 1014.93 1015.39 1015.78 1015.63 1016.01 1015.80 1015.85 1015.53 1015.24 1015.00 1014.42 1012.33 1012.26 1008.46 1008.63 1009.57 1010.63 1011.48 1012.39 1013.29 1014.19 1014.79 1015.39 1015.99 1016.56 1016.91 1017.35 1017.57 1017.79 1018.04 1018.22 1018.38 1018.55 1018.66 1018.50 1018.13 1017.77 1017.50 1017.30 1016.96 1016.68 1016.53 1016.41
1015.36 1016.05 1016.30 1016.42 1016.69 1016.87 1016.77 1016.24 1015.50 1015.63 1015.48 1014.69 1013.15 1012.59 1009.64 1010.45 1011.55 1011.73 1012.43 1013.13 1014.03 1014.61 1015.04 1015.54 1016.25 1016.95 1017.13 1017.40 1017.70 1017.82 1018.02 1018.19 1018.41 1018.62 1018.65 1018.53 1018.32 1017.98 1017.65 1017.35 1017.11 1016.78 1016.66 1016.70
1015.67 1016.11 1017.02 1017.46 1017.30 1017.15 1017.22 1016.63 1015.81 1015.62 1015.30 1013.77 1013.68 1013.33 1011.19 1011.93 1012.71 1013.51 1013.93 1014.16 1014.55 1014.77 1015.11 1015.54 1015.97 1016.53 1016.88 1017.34 1017.61 1017.95 1018.21 1018.36 1018.57 1018.73 1018.69 1018.59 1018.42 1018.23 1017.94 1017.59 1017.22 1017.10 1017.01 1016.80
1015.81 1016.59 1017.29 1018.08 1018.00 1017.82 1017.56 1017.64 1016.80 1015.72 1014.65 1013.72 1013.89 1012.70 1012.30 1013.12 1013.84 1014.34 1014.80 1015.11 1014.66 1014.80 1015.27 1015.83 1016.53 1016.83 1017.20 1017.69 1017.83 1018.08 1018.32 1018.52 1018.66 1018.77 1018.65 1018.61 1018.45 1018.34 1017.98 1017.66 1017.49 1017.39 1017.07 1016.73
1016.33 1016.87 1017.99 1018.55 1018.63 1018.79 1018.64 1018.22 1017.99 1017.10 1016.11 1015.16 1012.79 1012.38 1013.03 1013.61 1014.42 1014.76 1015.10 1014.89 1015.02 1015.26 1015.66 1016.28 1016.75 1017.29 1017.77 1017.90 1018.18 1018.49 1018.69 1018.71 1018.84 1018.85 1018.75 1018.55 1018.35 1018.21 1018.00 1017.85 1017.77 1017.44 1017.14 1016.74
1016.95 1017.40 1017.98 1018.95 1019.21 1019.51 1019.33 1019.07 1018.44 1017.74 1016.31 1014.31 1012.57 1012.71 1013.00 1014.31 1015.31 1015.48 1015.51 1015.48 1015.52 1015.62 1015.89 1016.40 1017.03 1017.54 1017.87 1018.25 1018.59 1018.84 1018.94 1019.07 1019.20 1019.02 1018.75 1018.44 1018.21 1018.06 1017.96 1017.80 1017.57 1017.33 1017.11 1016.81
1017.20 1018.01 1018.75 1019.39 1019.51 1019.13 1019.78 1019.02 1018.75 1018.14 1017.13 1015.57 1013.96 1013.21 1013.90 1014.61 1015.64 1015.94 1015.82 1015.68 1015.73 1015.83 1016.16 1016.57 1017.01 1017.50 1018.14 1018.80 1019.12 1019.18 1019.15 1019.24 1019.16 1018.98 1018.77 1018.41 1018.14 1017.99 1017.86 1017.66 1017.41 1017.14 1016.75 1016.43
1017.85 1018.36 1018.43 1018.82 1019.38 1019.73 1019.42 1018.92 1018.50 1017.94 1017.36 1016.62 1016.20 1014.65 1014.81 1015.49 1015.96 1016.17 1015.97 1015.78 1015.69 1015.86 1016.22 1016.52 1016.97 1017.66 1018.36 1018.79 1019.01 1019.05 1019.06 1019.13 1019.01 1018.92 1018.68 1018.36 1018.08 1017.89 1017.64 1017.44 1017.21 1016.86 1016.37 1015.97
1018.65 1018.90 1018.32 1018.71 1019.67 1019.71 1019.49 1019.02 1018.76 1018.58 1018.23 1016.71 1016.29 1014.98 1015.62 1016.12 1016.03 1016.18 1016.17 1016.00 1015.99 1015.89 1016.05 1016.48 1016.99 1017.54 1018.08 1018.54 1018.82 1018.98 1019.02 1019.00 1018.88 1018.76 1018.58 1018.17 1017.98 1017.68 1017.51 1017.19 1016.89 1016.56 1016.18 1015.76
1019.29 1019.00 1018.30 1017.89 1018.44 1018.63 1019.02 1018.92 1018.94 1018.80 1017.86 1016.62 1015.94 1015.40 1015.90 1016.09 1016.24 1016.24 1016.20 1016.23 1016.19 1016.08 1016.08 1016.36 1016.78 1017.32 1017.86 1018.28 1018.57 1018.78 1018.79 1018.70 1018.61 1018.43 1018.30 1017.90 1017.74 1017.49 1017.22 1016.91 1016.64 1016.39 1015.94 1015.47
1019.85 1019.13 1018.82 1018.29 1018.36 1018.67 1018.71 1018.78 1018.76 1018.48 1017.81 1017.34 1016.13 1016.32 1016.49 1016.69 1016.99 1016.97 1016.86 1016.47 1016.51 1016.22 1016.12 1016.26 1016.67 1016.96 1017.49 1017.96 1018.26 1018.41 1018.47 1018.35 1018.29 1018.15 1017.95 1017.65 1017.48 1017.23 1017.05 1016.67 1016.43 1016.07 1015.67 1015.23
1019.91 1019.25 1019.21 1018.32 1018.28 1018.56 1018.64 1018.45 1018.46 1018.27 1017.89 1017.41 1017.27 1016.54 1016.86 1016.98 1016.98 1017.02 1016.82 1016.84 1016.83 1016.45 1016.24 1016.29 1016.43 1016.80 1017.24 1017.58 1017.78 1017.93 1017.94 1017.92 1017.95 1017.79 1017.54 1017.33 1017.21 1017.03 1016.78 1016.49 1016.29 1016.05 1015.68 1015.20
1019.65 1019.36 1019.20 1018.26 1018.51 1018.74 1018.60 1017.90 1018.13 1017.90 1017.86 1017.58 1017.32 1017.16 1017.17 1016.96 1016.96 1016.84 1016.73 1017.07 1017.09 1016.72 1016.50 1016.34 1016.33 1016.43 1016.71 1016.99 1017.31 1017.40 1017.44 1017.52 1017.52 1017.38 1017.13 1016.97 1016.82 1016.72 1016.60 1016.31 1016.03 1015.77 1015.51 1015.20
1019.14 1019.44 1019.17 1018.44 1018.45 1018.24 1017.78 1018.29 1018.47 1018.41 1017.94 1017.75 1017.70 1017.60 1017.65 1017.48 1016.86 1016.44 1016.54 1017.05 1017.16 1016.85 1016.61 1016.42 1016.37 1016.31 1016.37 1016.48 1016.74 1016.82 1016.86 1016.95 1016.97 1016.86 1016.65 1016.58 1016.51 1016.35 1016.24 1016.13 1015.90 1015.59 1015.22 1014.86
1019.21 1019.11 1018.70 1018.43 1017.64 1016.73 1017.21 1018.10 1018.35 1018.40 1017.61 1017.48 1017.98 1018.03 1017.95 1017.64 1016.80 1016.13 1016.51 1017.18 1017.20 1016.79 1016.54 1016.35 1016.23 1016.17 1016.14 1016.19 1016.30 1016.37 1016.33 1016.34 1016.26 1016.11 1016.03 1016.00 1016.10 1016.07 1015.91 1015.83 1015.67 1015.40 1015.15 1014.81
1019.22 1019.17 1018.98 1018.57 1017.63 1016.32 1016.56 1017.31 1017.96 1018.34 1018.14 1017.95 1018.35 1018.49 1018.38 1018.12 1017.13 1016.69 1016.99 1017.06 1016.85 1016.69 1016.32 1016.02 1015.90 1015.95 1015.92 1015.86 1015.94 1015.84 1015.56 1015.58 1015.31 1015.19 1015.19 1015.29 1015.49 1015.65 1015.58 1015.43 1015.35 1015.23 1015.08 1014.70
1018.83 1018.76 1018.15 1017.90 1017.18 1016.02 1016.48 1017.38 1018.04 1018.53 1018.93 1018.41 1018.68 1018.79 1018.70 1018.54 1017.93 1017.40 1017.43 1017.20 1017.01 1016.53 1016.09 1015.76 1015.68 1015.58 1015.48 1015.39 1015.48 1015.22 1015.02 1014.60 1014.47 1014.51 1014.52 1014.63 1014.78 1015.03 1015.13 1015.02 1014.97 1014.98 1014.92 1014.70
1017.43 1017.44 1017.42 1017.52 1017.16 1016.64 1016.68 1017.84 1018.32 1018.65 1018.42 1018.68 1018.80 1018.94 1018.88 1018.73 1018.31 1017.99 1017.58 1017.15 1016.72 1016.32 1015.91 1015.76 1015.57 1015.28 1014.95 1014.81 1014.94 1014.70 1014.24 1013.95 1013.94 1013.98 1014.06 1014.13 1014.29 1014.42 1014.45 1014.68 1014.75 1014.72 1014.63 1014.40
1017.07 1016.02 1015.98 1016.12 1015.91 1016.19 1016.90 1017.63 1018.39 1018.83 1019.07 1019.17 1019.25 1019.20 1019.15 1018.82 1018.44 1018.14 1017.67 1017.22 1016.95 1016.67 1016.34 1016.08 1015.83 1015.42 1015.09 1014.70 1014.52 1014.21 1013.60 1013.56 1013.40 1013.49 1013.55 1013.62 1013.84 1013.88 1014.01 1014.14 1014.13 1014.11 1014.01 1013.91
1016.26 1016.16 1016.06 1016.03 1016.06 1016.54 1017.25 1018.19 1018.78 1019.20 1019.50 1019.60 1019.67 1019.69 1019.58 1019.31 1019.00 1018.48 1018.05 1017.66 1017.40 1017.12 1016.81 1016.51 1016.16 1015.71 1015.20 1014.78 1014.42 1013.95 1013.45 1013.16 1012.98 1012.94 1012.93 1013.02 1013.20 1013.24 1013.40 1013.41 1013.38 1013.29 1013.04 1012.86
1015.92 1015.99 1015.61 1015.70 1016.22 1017.03 1017.70 1018.37 1018.96 1019.35 1019.76 1019.88 1019.95 1020.07 1020.03 1019.87 1019.50 1019.24 1018.76 1018.36 1018.02 1017.64 1017.30 1017.03 1016.55 1016.02 1015.43 1014.92 1014.42 1013.93 1013.32 1012.97 1012.74 1012.56 1012.38 1012.26 1012.25 1012.31 1012.36 1012.35 1012.27 1012.18 1011.90 1011.75
1015.33 1014.99 1015.19 1015.08 1015.70 1016.35 1017.31 1018.49 1019.29 1019.64 1020.13 1020.40 1020.51 1020.40 1020.49 1020.53 1020.29 1020.00 1019.61 1019.22 1018.75 1018.31 1017.86 1017.38 1016.90 1016.35 1015.71 1015.13 1014.54 1014.01 1013.49 1012.98 1012.61 1012.20 1011.86 1011.55 1011.38 1011.30 1011.35 1011.37 1011.17 1011.03 1010.92 1010.93
Wind_Speed
3 6 7 4 4 10 9 12 16 16 16 9 16 20 20 19 18 18 17 14 12 10 9 3 6 5 7 6 6 4 2 3 4 5 6 6 7 7 7 6 9 9 8 9
4 8 5 2 2 6 8 12 14 11 6 3 14 24 25 23 16 9 7 4 2 4 5 4 6 6 6 6 4 3 2 3 4 4 5 6 7 7 8 8 8 8 9 9
7 4 1 4 5 6 9 10 12 14 15 15 13 16 6 3 4 5 6 6 5 4 6 6 6 5 4 4 3 1 3 4 5 6 5 5 7 7 7 6 7 8 9 10
5 5 2 4 6 4 7 4 5 8 8 6 5 10 13 6 5 3 6 6 6 5 4 3 3 4 4 2 0 2 3 5 5 5 6 7 7 8 7 8 7 8 10 10
4 3 3 3 2 1 3 5 6 7 7 10 5 6 5 3 7 7 7 6 6 4 2 0 2 1 2 2 3 4 4 5 5 5 6 6 8 7 7 7 10 9 9 9
3 1 1 1 1 3 5 6 9 3 4 6 1 5 3 5 3 7 7 6 4 4 4 3 2 3 4 4 5 4 5 5 5 6 7 8 9 9 8 9 8 7 6 7
4 4 3 2 5 3 2 4 3 4 5 3 2 5 7 3 3 4 5 7 7 6 6 6 6 5 4 5 4 4 5 6 6 6 7 8 9 10 11 10 7 8 7 6
5 5 5 1 2 2 1 2 4 6 4 5 4 6 2 2 0 3 4 5 7 8 6 5 5 4 4 4 5 5 6 6 6 7 7 7 8 6 7 8 8 7 7 8
4 3 4 5 3 1 3 4 3 5 2 4 4 4 5 4 5 3 5 9 10 8 7 5 4 4 4 4 5 5 6 6 7 7 7 8 7 8 8 10 9 8 9 8
3 2 1 3 2 1 4 2 3 4 5 5 4 5 4 7 3 11 9 10 9 8 7 5 4 4 3 3 4 6 5 5 7 8 7 7 7 8 7 7 9 9 9 10
5 1 4 2 6 5 4 4 4 3 4 4 4 2 2 10 4 7 9 8 8 9 7 5 4 3 2 3 4 5 5 5 6 6 7 8 8 8 7 7 8 8 7 8
4 1 5 2 3 2 4 3 5 4 5 2 3 5 2 4 2 5 10 10 10 8 7 5 4 3 4 4 4 4 4 5 5 5 6 7 7 7 7 7 7 6 8 8
4 5 4 4 2 3 5 6 4 2 1 8 4 1 1 3 8 5 10 12 10 10 8 5 3 4 4 4 4 4 5 5 5 5 5 6 6 7 7 7 7 7 7 8
2 4 7 3 4 2 5 7 9 8 5 4 11 10 4 12 13 15 13 11 12 9 6 5 4 4 5 5 5 5 5 4 5 4 5 5 5 6 6 7 6 6 5 6
3 5 3 8 10 9 12 11 11 15 13 8 3 5 8 12 10 9 10 9 11 10 7 4 5 4 5 5 5 5 5 5 4 4 4 5 5 4 5 5 5 5 4 5
4 2 1 4 1 2 6 10 13 15 16 15 15 20 1 6 6 8 9 7 10 11 10 7 5 5 5 5 6 5 5 4 4 4 5 4 5 4 3 4 4 4 5 5
6 3 2 3 2 7 8 7 10 4 1 9 11 4 6 9 11 10 8 8 10 11 11 10 8 5 5 6 7 6 5 4 5 5 5 5 4 4 3 4 3 3 3 4
6 4 2 4 2 6 3 1 1 4 5 9 5 5 7 10 14 14 8 7 9 11 12 10 8 6 5 6 6 7 6 7 6 6 6 5 5 5 4 4 4 4 4 4
4 5 3 4 4 5 4 5 5 5 3 8 5 6 9 10 13 1 3 3 9 12 10 10 7 7 6 5 6 8 7 7 7 7 7 5 5 5 5 5 4 4 5 5
5 3 5 3 5 4 4 3 4 2 5 4 2 6 9 11 7 1 4 15 14 13 10 10 8 7 6 6 7 9 9 9 10 9 8 7 6 6 6 6 5 4 4 6
6 5 12 9 5 4 3 5 6 3 3 1 4 7 9 8 7 15 16 13 12 12 12 10 7 6 7 5 6 10 9 12 9 7 7 7 7 7 7 6 5 4 4 5
9 9 6 6 6 8 7 6 4 3 3 5 7 8 10 12 13 13 12 12 13 13 13 10 10 9 9 5 8 11 13 10 9 9 9 8 7 6 5 5 5 4 5 5
6 4 3 6 1 3 6 3 4 2 3 6 9 9 10 13 13 15 14 14 14 16 14 12 12 12 10 8 7 11 12 9 8 7 9 8 6 7 7 6 6 5 5 5
6 4 3 2 5 4 5 6 3 2 5 7 7 9 10 11 13 14 13 13 13 12 12 12 13 12 12 10 10 10 12 10 7 10 10 8 8 8 7 6 6 6 6 6
2 8 7 3 4 8 6 4 2 3 4 6 7 7 8 10 12 13 13 13 13 13 12 12 12 12 13 12 12 11 11 8 9 10 10 9 8 9 8 9 8 8 9 8
7 6 6 2 8 2 7 5 4 4 6 7 8 9 9 9 11 13 12 12 12 13 13 12 12 12 13 13 12 12 11 8 9 10 8 8 8 7 7 7 7 18 20 16
Wind_Direction
180 233 222 281 276 298 295 286 285 285 293 289 273 282 286 281 277 267 262 253 248 243 53 101 138 148 153 157 166 173 266 345 337 327 323 316 312 310 303 306 305 297 295 302
198 239 70 49 285 274 272 277 282 295 35 294 290 291 283 279 283 313 323 325 359 92 90 123 154 157 174 163 169 207 255 321 333 318 323 305 308 303 304 296 285 286 295 305
258 63 80 291 275 269 268 269 291 300 318 272 290 277 251 141 124 91 86 84 85 108 137 152 156 164 158 196 198 265 332 324 316 313 304 296 293 280 285 295 315 312 312 302
260 81 253 257 273 291 287 20 305 297 320 304 360 292 287 302 97 113 119 102 81 82 82 105 166 185 202 226 236 275 312 308 305 317 301 299 294 291 300 306 304 307 304 303
81 187 235 277 289 283 301 319 293 301 282 324 248 247 281 133 88 89 77 77 76 59 29 316 227 246 268 250 277 289 295 300 300 297 290 287 282 290 303 298 299 302 302 309
282 90 280 290 218 252 301 292 269 297 273 247 98 253 333 21 37 79 73 71 50 4 330 281 244 248 239 235 257 280 296 292 296 287 278 277 286 294 294 298 302 297 308 305
165 186 127 270 233 171 33 314 272 222 197 291 149 228 323 61 49 8 347 355 347 325 315 321 290 264 261 264 273 292 299 295 295 290 290 295 295 293 292 290 291 299 300 293
225 210 190 74 47 36 321 290 291 288 298 339 145 244 119 72 159 268 282 283 296 347 337 323 298 291 280 270 292 302 298 293 300 298 300 296 290 285 289 287 292 293 285 285
193 182 121 72 60 353 126 215 52 286 151 255 229 221 113 112 50 333 339 343 350 345 328 306 298 268 265 287 300 302 293 307 309 307 303 292 290 286 289 294 295 287 291 291
124 247 85 98 73 231 254 359 207 185 268 254 218 247 180 147 33 351 349 350 338 331 317 302 275 261 258 287 303 297 302 301 302 297 297 296 296 288 288 288 286 290 295 294
134 42 111 144 199 183 173 206 222 307 258 287 306 106 292 136 94 330 326 326 318 315 306 288 274 280 321 286 279 282 293 298 297 302 304 300 301 300 295 288 289 295 288 283
89 220 242 234 111 288 290 288 218 246 166 250 320 277 29 96 323 300 309 318 323 301 296 289 282 263 254 259 263 272 277 274 277 293 300 301 303 302 296 295 297 294 291 294
152 213 244 189 165 187 230 203 222 53 305 230 257 222 89 241 330 3 336 334 329 321 301 292 264 259 255 252 254 255 260 261 280 286 294 298 307 301 303 303 305 306 305 301
182 248 263 282 40 59 205 212 215 213 238 253 234 284 224 340 347 340 335 340 333 318 300 298 286 253 241 238 244 248 259 256 268 270 283 291 295 303 303 305 310 307 306 302
232 254 268 278 276 266 260 254 217 219 234 245 288 261 325 321 328 309 306 329 331 340 337 323 289 259 233 235 239 242 254 255 265 273 274 275 288 295 296 306 315 322 330 322
187 244 322 274 287 270 256 245 236 237 239 250 267 286 285 304 289 299 323 333 326 333 338 330 301 271 250 235 236 232 242 244 246 262 260 267 273 276 288 311 321 339 345 339
185 236 276 276 34 306 255 223 207 225 293 239 242 288 337 317 313 308 317 314 315 324 329 325 313 278 240 225 230 234 234 232 239 253 259 256 266 272 280 294 307 298 308 319
178 196 208 287 295 240 67 31 1 248 270 216 276 279 307 299 293 287 264 259 306 321 319 320 309 291 260 236 220 242 229 228 234 248 252 248 254 267 273 281 286 292 294 300
198 190 223 260 256 324 165 190 173 190 243 184 220 278 301 310 298 267 100 238 293 308 300 298 294 278 275 242 223 228 233 238 238 237 243 237 239 259 267 271 276 291 304 306
181 229 219 167 253 267 74 135 157 138 259 137 203 280 309 326 314 39 336 334 321 312 309 309 307 297 266 252 235 237 236 233 236 231 231 226 226 239 253 261 267 283 284 292
170 191 216 222 261 278 116 131 156 199 70 278 251 281 297 289 296 316 318 312 311 309 312 314 306 288 276 258 223 240 244 242 241 236 228 224 221 222 240 248 248 259 272 278
179 174 188 197 226 256 137 138 225 45 288 316 317 317 304 297 298 300 303 312 319 325 326 331 324 321 323 287 240 251 248 251 240 232 229 223 213 220 230 222 234 229 244 255
216 237 194 215 191 81 155 50 87 28 309 329 317 321 314 305 309 318 315 321 327 328 331 330 325 316 314 309 253 262 262 255 238 223 231 228 218 217 220 228 236 241 224 240
216 203 245 211 158 173 150 103 53 14 325 325 329 323 320 316 318 314 320 325 323 327 327 328 322 316 313 315 310 279 279 272 236 233 236 230 227 229 219 223 226 231 231 228
42 163 197 239 133 108 142 112 72 3 356 339 340 337 330 325 321 328 325 326 327 326 327 326 319 317 315 318 316 308 297 271 252 250 249 235 229 225 230 223 223 223 229 223
186 186 196 206 136 49 119 111 51 11 3 355 342 339 346 342 333 333 324 327 327 328 324 323 322 320 320 320 316 319 316 292 267 260 256 244 237 230 221 232 241 236 242 240